User: anonymous   Login
Location: Oshawa
(43.9000°N, 78.8670°W)
Time: 04:39:09
(UTC-05:00)
Language:

Cosmos 1707 Rocket - Orbit

View from above orbital plane
View from above orbital plane
View from above satellite
View from above satellite

Ground track
Ground track

The orbit data is extracted from the following two-line orbital elements,

1 16327U 85113B   14353.74119409  .00000663  00000-0  78395-4 0  5401
2 16327 082.5340 223.3466 0020773 109.8799 315.3603 14.82975946566925
Epoch (UTC): 19 December 2014 17:47:19
Eccentricity: 0.0020773
inclination: 82.5340°
perigee height: 605 km
apogee height: 634 km
right ascension of ascending node: 223.3466°
argument of perigee: 109.8799°
revolutions per day: 14.82975946
mean anomaly at epoch: 315.3603°
orbit number at epoch: 56692

The dashed part of the orbit path shows where the satellite is in the earth's shadow,  

DLR